Temperature
9 9 9 11 11 12 12 12 12 13 13 12 13 14 15 15 15 15 15 15 16 16 16 16 16 16 17 18 18 19 19 19 18 17 15 15 14 14 13 13 12 12 12 12
8 8 10 11 10 10 10 11 11 12 13 12 12 13 14 15 15 15 15 15 15 15 16 16 16 16 16 17 18 18 19 19 18 17 16 16 15 14 13 13 12 12 11 11
9 9 10 9 9 9 9 10 11 11 11 11 11 12 15 16 15 14 14 15 15 16 16 16 16 16 16 16 17 18 19 18 17 16 14 15 15 14 13 12 12 11 10 11
9 9 8 8 8 9 9 10 10 10 9 10 10 11 15 15 14 15 15 15 15 15 15 15 16 16 16 16 17 17 18 18 17 16 15 15 15 13 12 12 11 10 10 10
8 7 7 8 8 9 9 9 9 9 9 9 10 9 12 15 14 14 16 16 16 16 15 15 15 15 15 15 16 17 17 17 17 16 14 14 14 14 13 11 10 10 10 10
9 8 8 9 9 9 9 8 8 8 8 7 10 10 11 15 15 15 16 16 16 15 15 14 14 14 14 14 15 16 16 16 16 14 13 13 14 14 13 11 10 10 10 10
7 8 8 8 8 8 8 7 7 7 7 9 12 10 12 15 15 15 16 16 16 15 15 15 14 14 13 14 15 15 15 15 14 13 12 13 13 13 13 11 11 10 10 10
6 8 8 8 8 8 8 8 8 8 9 10 11 10 12 15 14 14 14 15 15 15 15 14 14 14 13 14 15 14 14 14 13 12 12 13 13 12 12 11 11 10 10 10
7 8 8 8 8 8 7 7 8 8 8 8 10 11 13 14 13 14 14 14 14 14 14 14 13 13 13 13 14 13 12 13 12 12 12 12 12 11 11 11 10 10 10 9
8 7 8 8 7 7 8 8 6 6 7 8 10 11 12 14 14 14 14 14 13 13 13 13 13 13 12 12 11 11 11 11 11 12 12 12 11 11 11 10 10 9 9 9
9 7 7 6 6 7 7 5 6 7 7 8 9 11 14 13 13 13 13 13 12 12 12 12 11 11 11 10 9 10 10 11 11 12 12 11 11 11 10 10 9 9 9 8
8 7 6 7 9 9 9 8 7 6 7 7 8 11 14 13 13 12 12 12 11 11 10 10 10 9 9 9 9 9 10 11 11 11 11 11 10 10 10 9 9 9 8 7
8 6 6 8 8 8 7 8 8 6 6 7 7 10 13 13 12 12 12 11 11 10 9 8 8 8 8 8 8 10 11 11 11 11 10 10 10 10 9 9 8 8 7 6
8 6 6 8 9 8 6 7 7 5 6 7 9 10 12 12 12 12 11 10 10 10 8 7 7 7 7 7 9 11 11 11 11 10 10 10 10 9 9 8 8 7 6 5
8 6 6 7 8 7 6 6 6 5 6 7 9 10 12 12 12 11 10 9 9 9 7 6 6 6 6 7 9 11 11 10 10 10 10 10 9 8 8 7 7 6 5 4
8 6 6 6 8 8 7 7 7 6 6 7 8 9 11 11 10 10 9 8 8 8 7 6 5 5 6 8 10 10 10 9 10 10 9 9 8 8 7 6 5 5 4 3
7 6 6 7 10 8 8 8 7 7 7 8 8 9 10 10 9 9 8 8 8 8 6 5 4 5 6 8 10 9 9 9 9 9 8 8 8 7 6 5 4 3 2 2
7 6 6 7 8 9 10 9 8 8 9 9 9 10 10 9 8 7 7 6 7 7 6 5 5 6 8 9 9 9 9 9 8 8 8 7 6 6 5 4 3 2 1 1
8 7 6 7 8 10 11 10 8 8 9 10 9 10 10 8 8 8 6 5 6 6 5 5 6 8 9 9 9 9 8 8 7 7 6 6 5 4 3 2 2 1 0 -0
7 7 7 7 8 10 12 10 9 9 11 10 10 10 10 9 8 8 4 5 5 5 6 7 8 8 8 8 8 8 7 7 6 6 5 4 3 2 2 1 0 -0 -1 -1
7 7 7 8 8 11 12 10 10 11 11 9 9 9 10 9 8 5 4 4 5 5 6 7 8 8 8 8 7 7 7 6 5 5 4 3 2 1 1 -0 -1 -1 -1 -2
9 9 8 8 9 11 11 10 11 12 9 8 7 8 7 5 4 4 4 4 4 5 5 7 8 7 7 7 7 7 6 5 4 3 2 1 1 0 -1 -1 -1 -2 -2 -2
10 10 11 11 12 13 10 10 10 8 7 7 6 7 7 4 3 3 4 4 3 4 5 6 7 7 6 6 6 6 5 3 2 2 1 0 -0 -1 -1 -2 -2 -2 -3 -3
10 9 10 10 11 11 10 9 8 6 5 5 6 6 7 5 3 3 3 3 3 3 4 5 6 6 5 5 4 5 3 2 1 0 -0 -1 -1 -2 -2 -2 -3 -3 -3 -4
11 10 9 11 12 11 11 8 7 6 5 5 6 6 6 5 3 3 3 3 3 3 4 5 6 5 4 3 3 2 1 0 -0 -1 -1 -1 -2 -2 -3 -3 -3 -4 -4 -5
10 10 11 12 12 12 10 6 6 6 4 5 5 5 5 5 4 4 4 4 4 5 5 5 4 3 2 2 1 0 -1 -1 -1 -1 -1 -2 -2 -3 -3 -4 -4 -4 -5 -5
Wind_Speed
7 7 11 13 15 10 6 10 12 11 9 12 20 25 23 22 23 24 23 23 23 23 19 17 16 14 12 11 10 10 13 16 15 13 13 11 9 9 9 8 12 13 14 14
6 12 13 9 10 12 14 15 16 14 11 12 20 29 26 25 27 26 26 26 26 25 24 22 20 16 13 13 11 11 14 17 18 15 13 10 11 9 9 9 10 12 12 13
11 1 6 12 12 14 16 17 15 14 13 14 18 23 21 16 18 22 25 27 29 28 27 26 24 22 16 14 13 12 16 17 18 16 11 12 10 8 7 9 8 7 10 12
10 9 5 9 12 13 13 11 13 13 10 8 7 12 17 11 11 14 17 19 22 23 24 25 25 24 21 16 13 14 16 19 19 18 16 19 14 14 11 10 9 9 10 12
8 6 9 12 13 14 8 5 9 11 12 12 14 11 18 13 15 14 16 18 18 18 19 20 22 22 20 17 14 16 17 19 19 19 19 18 15 14 13 13 14 11 10 11
8 5 6 8 8 13 8 4 7 9 9 11 19 16 18 18 16 15 14 15 14 13 14 15 17 17 18 15 15 17 19 19 20 20 19 18 19 19 19 17 15 11 9 9
7 10 9 6 7 9 10 5 4 6 8 12 12 12 16 18 14 16 15 14 14 12 12 12 13 14 16 18 19 20 21 21 20 20 19 18 19 21 22 20 16 14 11 9
5 6 10 11 12 9 14 11 10 7 10 12 10 15 16 17 15 18 18 16 16 15 14 14 13 12 15 19 21 22 22 21 21 20 18 17 17 14 15 17 15 13 10 10
8 5 4 10 11 9 7 12 12 10 12 12 13 17 19 16 16 19 19 16 14 14 14 13 12 11 14 18 21 22 22 21 20 19 17 17 15 15 16 16 14 11 11 11
7 6 5 5 8 12 12 6 6 8 8 13 17 23 18 16 14 14 10 9 12 15 16 13 10 11 14 16 19 20 20 20 19 18 17 14 14 15 17 15 14 13 13 12
9 7 4 6 12 15 14 9 10 9 9 9 14 14 7 6 6 5 6 10 14 17 17 13 7 10 13 16 18 19 19 19 18 18 17 16 15 15 16 15 14 13 12 12
11 6 7 12 13 15 18 18 17 12 12 10 11 16 7 9 7 5 10 14 15 17 16 11 5 10 14 17 19 18 17 17 17 17 17 17 17 16 16 15 14 13 12 11
10 5 5 6 6 9 12 20 22 17 12 12 14 16 5 6 8 10 15 17 16 16 13 6 6 12 15 17 17 17 17 16 16 17 18 18 18 17 16 15 14 12 11 10
9 8 10 12 12 8 11 16 20 19 13 17 24 27 22 18 20 20 19 16 16 15 9 3 7 11 14 15 16 16 16 15 15 17 18 18 17 16 15 15 14 12 11 9
8 7 10 19 24 22 25 25 19 22 23 20 25 26 25 20 18 16 14 14 15 14 7 6 9 12 13 14 15 15 16 15 15 17 17 17 16 16 15 14 13 11 9 8
8 6 7 17 22 22 24 24 22 21 22 27 28 28 21 16 13 13 14 13 14 12 5 8 10 13 14 15 15 16 16 15 15 17 17 16 16 15 14 13 12 11 8 7
7 4 5 10 14 14 11 11 12 12 16 17 22 24 18 15 15 14 13 14 13 8 7 11 12 13 14 15 16 17 16 16 16 17 17 16 16 15 13 12 11 9 7 5
7 4 4 7 11 6 5 6 9 12 16 20 20 18 13 12 12 11 11 11 8 3 10 12 13 14 15 16 17 17 17 17 17 17 16 15 15 14 12 11 9 7 5 3
14 8 5 5 7 10 6 4 4 5 7 9 18 20 16 9 11 9 6 6 2 6 11 12 14 15 16 16 17 18 17 16 16 16 15 14 14 13 11 10 8 5 3 2
9 11 6 5 6 4 5 4 3 5 4 7 8 10 10 7 5 4 7 7 8 11 13 14 15 16 16 16 17 18 17 16 15 15 14 13 12 11 10 9 6 4 2 1
4 6 8 8 6 7 5 3 3 4 9 12 10 2 8 7 2 3 7 9 11 12 14 15 16 15 15 16 17 17 16 15 15 14 14 12 11 10 9 7 5 3 1 1
8 6 7 5 6 5 1 2 2 6 6 7 6 2 8 9 8 8 9 11 12 13 14 15 16 15 14 15 17 17 16 15 14 14 13 12 11 9 7 6 4 3 2 3
7 7 4 6 6 5 3 6 5 5 6 4 1 3 11 11 9 9 10 11 12 13 14 14 17 17 14 13 15 18 15 14 14 13 12 11 10 8 6 5 4 2 3 4
4 5 5 6 9 8 8 6 3 3 3 1 3 8 9 12 13 13 12 12 13 13 14 15 17 17 15 14 14 16 14 13 14 13 11 9 8 7 5 4 3 3 3 4
4 5 5 7 8 8 4 2 3 5 5 7 9 10 13 16 15 14 14 14 13 13 13 13 15 16 16 15 14 13 12 13 13 11 9 8 6 5 4 4 3 3 3 5
6 8 5 4 2 3 3 3 6 7 7 9 13 15 13 14 16 16 15 14 14 14 14 15 16 16 15 14 13 11 10 11 12 9 8 6 5 4 3 2 1 1 2 6
Wind_Direction
178 200 215 216 218 249 259 250 254 255 265 284 273 273 271 269 266 264 262 262 260 256 253 255 256 252 251 246 234 213 189 179 176 174 168 158 155 146 131 124 129 131 131 130
182 230 234 230 227 239 245 254 262 273 267 272 281 280 276 268 263 261 260 258 257 257 254 250 250 247 244 240 227 203 184 179 179 181 177 168 146 132 121 117 112 117 127 129
208 204 219 213 221 231 241 249 262 271 291 277 285 285 274 262 256 256 255 256 255 253 251 246 242 241 237 233 216 196 182 178 179 176 158 142 129 126 120 117 111 118 131 127
230 230 211 209 224 229 253 249 254 264 270 275 272 289 288 285 271 263 259 254 253 252 248 244 240 237 231 225 209 193 181 177 177 169 165 164 160 155 153 143 132 132 131 126
214 211 212 222 227 221 239 237 244 255 260 269 255 260 282 279 271 268 259 255 257 258 250 243 240 237 230 217 196 185 180 177 173 171 172 171 160 146 139 133 134 133 130 127
239 208 220 226 223 219 221 231 260 254 255 257 253 246 274 276 271 270 262 260 266 268 259 248 244 238 229 205 185 179 178 175 172 172 171 167 155 146 144 145 145 142 138 133
234 225 219 205 208 204 205 213 249 233 226 247 255 241 258 275 262 253 257 271 286 289 277 260 249 235 214 190 182 179 177 173 173 172 169 161 156 153 153 153 154 150 147 143
221 241 211 209 215 211 205 209 225 254 256 267 254 245 257 268 259 257 263 275 290 295 288 270 256 233 205 189 182 179 177 172 171 170 164 154 154 153 153 156 154 151 145 140
210 248 207 210 211 210 203 218 237 258 267 268 257 257 263 262 257 257 265 281 297 309 309 284 257 225 199 186 181 178 174 169 166 162 152 147 151 151 149 149 145 137 133 136
207 243 227 199 204 224 229 228 206 219 252 257 260 262 264 268 262 264 272 296 317 322 324 309 261 215 192 180 174 171 168 163 155 150 144 142 146 148 145 143 139 136 136 136
208 224 228 193 210 213 203 213 220 235 239 255 269 267 271 257 269 289 308 322 329 329 325 315 263 202 177 167 164 160 158 151 147 144 137 136 139 142 138 133 132 134 135 139
203 219 250 239 236 230 224 225 223 235 238 237 257 268 261 262 261 288 318 324 328 331 326 315 236 173 164 161 157 151 148 146 144 140 136 137 138 136 130 128 130 133 134 137
173 202 269 267 234 224 239 239 235 237 250 247 252 265 260 234 246 286 311 316 321 329 327 310 180 165 161 156 148 141 139 139 139 137 137 136 134 131 129 128 129 130 131 133
176 207 226 260 280 273 251 249 236 231 240 250 249 260 265 267 279 293 303 309 316 325 316 250 175 160 153 147 139 132 130 133 135 134 131 129 129 128 127 126 126 128 131 134
201 244 243 258 270 270 266 267 255 236 236 247 260 266 273 281 284 289 298 306 308 316 288 202 169 152 143 136 130 125 125 129 132 127 123 123 123 122 123 124 124 124 126 130
209 257 275 275 273 270 272 271 262 248 242 246 259 269 279 289 284 288 297 302 302 304 243 178 158 148 140 134 128 123 124 127 124 120 120 121 121 121 122 123 123 123 128 134
199 234 277 287 303 297 274 272 255 237 232 238 250 259 271 279 285 291 296 300 300 288 188 161 152 143 135 131 127 124 124 122 119 118 120 121 121 121 122 124 124 128 135 140
219 229 270 293 310 298 313 281 266 258 253 242 247 259 268 280 290 293 298 301 298 190 154 147 137 127 123 120 118 118 118 118 118 118 119 120 122 122 125 125 125 129 137 146
224 233 263 281 296 287 303 315 283 273 276 262 253 252 254 265 288 294 338 326 288 140 135 130 125 122 118 118 119 117 115 116 117 118 119 122 125 126 127 124 124 129 139 136
218 219 236 270 290 293 328 329 279 261 321 3 317 259 235 222 271 337 23 31 89 111 118 121 120 118 117 119 120 116 116 116 116 118 119 121 123 123 121 119 120 120 118 56
171 203 229 249 264 276 293 291 268 334 344 341 342 320 180 190 212 59 63 69 86 102 114 119 117 113 116 120 117 113 112 112 115 116 114 112 111 109 110 113 115 119 98 346
200 206 215 219 242 274 250 258 282 316 319 322 338 79 126 115 102 92 87 89 97 105 111 113 110 107 111 116 115 111 111 115 116 113 110 107 105 104 111 118 117 99 33 341
218 221 232 226 253 305 277 256 286 311 300 306 306 124 128 121 117 108 99 99 101 104 107 109 110 107 107 110 114 114 118 120 118 113 110 109 109 110 113 108 96 64 16 351
234 220 243 265 269 274 278 281 316 345 319 312 145 133 127 123 124 117 110 106 104 105 109 113 111 107 104 106 109 116 122 123 119 117 118 121 119 112 102 89 66 34 8 349
247 202 229 257 279 294 304 2 57 71 82 103 109 113 119 121 122 119 114 111 111 110 109 109 109 108 110 112 112 116 122 124 122 122 121 117 109 105 96 86 59 17 9 346
220 213 224 260 311 296 350 73 103 102 102 114 117 114 115 122 124 119 114 113 113 110 109 108 108 111 114 114 113 117 125 129 127 123 119 112 110 102 90 68 42 69 336 339
Height
1492 1493 1489 1485 1487 1484 1485 1483 1480 1478 1479 1479 1470 1462 1460 1461 1460 1459 1458 1457 1456 1455 1457 1458 1458 1459 1460 1462 1464 1466 1467 1469 1471 1473 1477 1480 1484 1488 1492 1496 1499 1501 1503 1506
1491 1489 1483 1486 1488 1489 1488 1485 1480 1478 1478 1478 1466 1454 1452 1452 1450 1451 1450 1448 1447 1447 1448 1450 1451 1451 1452 1455 1457 1460 1461 1463 1465 1468 1472 1476 1480 1484 1488 1492 1495 1498 1500 1503
1481 1483 1483 1487 1488 1489 1485 1484 1481 1480 1477 1475 1471 1447 1435 1434 1438 1440 1440 1438 1437 1436 1437 1439 1441 1443 1444 1446 1449 1453 1454 1456 1458 1462 1466 1470 1474 1479 1483 1487 1491 1495 1498 1501
1481 1481 1485 1486 1486 1486 1482 1481 1482 1482 1482 1474 1471 1455 1425 1429 1433 1433 1431 1428 1426 1426 1427 1428 1430 1433 1435 1438 1441 1445 1447 1449 1452 1456 1460 1465 1469 1473 1479 1483 1487 1492 1496 1499
1479 1482 1483 1483 1482 1483 1480 1482 1481 1480 1478 1476 1466 1468 1432 1427 1428 1426 1423 1420 1418 1418 1419 1419 1420 1423 1427 1430 1433 1437 1440 1443 1446 1450 1456 1463 1467 1471 1475 1480 1484 1489 1493 1497
1476 1480 1480 1478 1479 1480 1480 1483 1482 1480 1480 1475 1454 1456 1433 1419 1418 1418 1415 1413 1413 1413 1412 1412 1412 1414 1417 1420 1424 1428 1433 1437 1441 1446 1452 1459 1463 1466 1471 1476 1481 1486 1490 1494
1475 1475 1476 1477 1477 1478 1480 1482 1479 1475 1472 1457 1440 1444 1428 1414 1415 1414 1411 1409 1408 1408 1407 1406 1405 1405 1407 1410 1414 1421 1426 1431 1436 1442 1448 1454 1460 1465 1469 1473 1478 1483 1488 1491
1472 1466 1468 1470 1471 1471 1473 1475 1471 1463 1450 1440 1437 1435 1417 1410 1412 1411 1409 1407 1405 1403 1401 1399 1398 1398 1399 1402 1407 1414 1420 1425 1431 1437 1444 1450 1457 1463 1467 1472 1476 1482 1486 1489
1465 1464 1464 1466 1468 1470 1471 1471 1466 1465 1456 1453 1434 1418 1408 1407 1410 1408 1406 1404 1402 1398 1395 1392 1391 1392 1393 1396 1401 1408 1415 1421 1426 1433 1439 1446 1454 1460 1465 1470 1475 1480 1484 1487
1460 1464 1460 1463 1468 1467 1464 1463 1468 1467 1454 1439 1422 1411 1403 1399 1401 1401 1401 1400 1398 1394 1389 1386 1386 1387 1389 1392 1397 1405 1413 1418 1423 1429 1437 1444 1451 1458 1464 1468 1474 1479 1483 1485
1457 1463 1460 1463 1459 1453 1461 1466 1463 1453 1446 1436 1420 1404 1392 1396 1398 1399 1399 1397 1394 1390 1386 1382 1381 1383 1386 1390 1395 1402 1410 1415 1421 1428 1435 1442 1449 1456 1462 1467 1473 1478 1481 1483
1454 1458 1455 1451 1444 1445 1445 1446 1450 1448 1438 1432 1421 1402 1391 1394 1395 1397 1396 1394 1391 1387 1383 1379 1379 1381 1384 1388 1394 1400 1407 1414 1420 1427 1434 1440 1447 1454 1461 1467 1472 1476 1479 1481
1451 1457 1453 1438 1441 1444 1443 1437 1437 1440 1435 1427 1420 1400 1389 1392 1392 1392 1392 1390 1387 1384 1381 1378 1379 1381 1385 1389 1393 1399 1406 1414 1421 1427 1433 1440 1447 1454 1461 1466 1470 1474 1477 1479
1449 1450 1449 1436 1427 1433 1436 1431 1430 1434 1426 1415 1403 1391 1386 1388 1388 1388 1389 1387 1384 1382 1380 1379 1379 1382 1386 1389 1393 1399 1407 1415 1422 1428 1435 1441 1448 1454 1460 1465 1469 1472 1475 1477
1446 1444 1442 1436 1428 1427 1425 1422 1422 1422 1415 1408 1392 1387 1381 1384 1386 1387 1386 1384 1381 1380 1379 1379 1380 1383 1385 1389 1395 1402 1409 1416 1423 1430 1436 1442 1448 1454 1459 1463 1467 1470 1473 1475
1441 1442 1438 1431 1422 1416 1413 1408 1407 1408 1407 1402 1395 1387 1383 1385 1385 1385 1383 1381 1379 1377 1377 1379 1381 1383 1386 1390 1396 1403 1410 1418 1425 1431 1437 1443 1448 1454 1459 1462 1465 1469 1471 1472
1437 1440 1436 1421 1408 1409 1402 1397 1396 1396 1394 1394 1390 1383 1382 1384 1383 1382 1380 1378 1376 1375 1376 1379 1382 1384 1388 1393 1399 1405 1413 1420 1427 1433 1439 1444 1449 1454 1459 1462 1465 1467 1469 1470
1433 1436 1435 1423 1414 1401 1394 1392 1392 1389 1385 1384 1381 1379 1381 1382 1380 1379 1377 1375 1374 1374 1377 1380 1383 1386 1391 1397 1404 1410 1417 1424 1430 1436 1441 1445 1450 1455 1458 1461 1464 1466 1467 1468
1428 1432 1431 1423 1411 1397 1387 1389 1389 1387 1381 1377 1376 1375 1378 1381 1379 1375 1375 1373 1373 1375 1378 1382 1385 1390 1396 1402 1408 1414 1421 1427 1433 1438 1443 1447 1452 1455 1458 1461 1463 1465 1465 1464
1424 1427 1428 1420 1412 1397 1386 1387 1386 1388 1376 1375 1373 1371 1374 1379 1378 1375 1376 1374 1375 1378 1380 1385 1390 1395 1401 1407 1413 1419 1425 1430 1435 1440 1445 1449 1453 1456 1458 1460 1462 1463 1463 1461
1422 1423 1422 1417 1410 1392 1385 1386 1385 1379 1377 1375 1373 1371 1372 1376 1378 1379 1377 1377 1379 1381 1385 1390 1395 1401 1406 1412 1418 1422 1428 1433 1438 1443 1447 1450 1454 1456 1458 1459 1460 1460 1460 1458
1410 1412 1412 1409 1405 1394 1384 1384 1382 1379 1377 1376 1374 1373 1374 1377 1379 1379 1380 1381 1383 1386 1390 1395 1399 1405 1411 1417 1421 1426 1431 1436 1441 1445 1449 1451 1454 1455 1457 1458 1458 1458 1456 1454
1404 1402 1399 1397 1392 1383 1383 1381 1380 1378 1377 1375 1374 1374 1375 1378 1381 1382 1383 1385 1388 1390 1393 1398 1403 1409 1415 1422 1427 1431 1435 1440 1444 1447 1450 1452 1454 1455 1456 1456 1456 1455 1453 1451
1400 1400 1399 1393 1385 1382 1380 1379 1378 1376 1374 1373 1373 1374 1376 1378 1382 1384 1386 1389 1392 1395 1399 1403 1408 1413 1420 1426 1432 1435 1439 1443 1446 1448 1451 1452 1453 1454 1454 1454 1453 1452 1450 1448
1395 1396 1394 1389 1383 1381 1378 1378 1377 1375 1374 1374 1374 1376 1379 1381 1384 1387 1390 1393 1396 1400 1405 1410 1414 1419 1425 1430 1435 1439 1442 1445 1447 1449 1450 1451 1452 1452 1452 1452 1451 1449 1447 1445
1391 1389 1387 1382 1382 1381 1380 1379 1378 1378 1378 1378 1377 1379 1382 1385 1388 1391 1394 1398 1402 1406 1411 1416 1420 1424 1429 1434 1437 1441 1444 1446 1448 1449 1450 1450 1451 1451 1451 1450 1449 1447 1445 1442